Weather History for KAEL - November, 2012

Change the Weather History Date:

Saturday, November 17, 2012

  Actual Average Record
Temperature  
Mean Temperature 44 °F -  
Max Temperature 55 °F 39 °F 69 °F (2001)
Min Temperature 32 °F 24 °F 3 °F (2014)
Degree Days  
Heating Degree Days 22    
Moisture  
Dew Point 33 °F    
Average Humidity 71    
Maximum Humidity 93    
Minimum Humidity 44    
Precipitation  
Precipitation 0.00 in - - ()
Sea Level Pressure  
Sea Level Pressure 30.27 in    
Wind  
Wind Speed 11 mph (SSE)    
Max Wind Speed 20 mph    
Max Gust Speed 30 mph    
Visibility 8 miles    
Events      
Averages and records for this station are not official NWS values.
T = Trace of Precipitation, MM = Missing Value Source: NWS Daily Summary

Daily Weather History Graph

Daily Weather History Graph

Search for Another Location

Airport or City:

Trip Planner

Search our weather history database for the weather conditions in past years. The results will help you decide how hot, cold, wet, or windy it might be!

Date:

Astronomy

Nov. 17, 2012 Rise Set
Actual Time 7:10 AM CST 4:45 PM CST
Civil Twilight 6:39 AM CST 5:17 PM CST
Nautical Twilight 6:04 AM CST 5:51 PM CST
Astronomical Twilight 5:30 AM CST 6:25 PM CST
Moon 10:56 AM CST (11/17) 8:57 PM CST (11/17)
Length of Visible Light 10h 37m
Length of Day
9h 34m
Waxing Crescent, 20% of the Moon is Illuminated
Nov 17
Waxing Crescent
Nov 20
First Quarter
Nov 28
Full
Dec 6
Last Quarter
Dec 13
New

Hourly Weather History & Observations

Time (CST) Temp. Windchill Dew Point Humidity Pressure Visibility Wind Dir Wind Speed Gust Speed Precip Events Conditions
12:11 AM 32.0 °F 24.8 °F 30.2 °F 93% 30.33 in 7.0 mi SSE 8.1 mph - N/A   Clear
12:31 AM 32.0 °F 25.6 °F 30.2 °F 93% 30.33 in 7.0 mi SSE 6.9 mph - N/A   Clear
12:51 AM 32.0 °F 25.6 °F 30.2 °F 93% 30.33 in 7.0 mi SSE 6.9 mph - N/A   Clear
1:11 AM 32.0 °F 24.8 °F 30.2 °F 93% 30.33 in 5.0 mi SSE 8.1 mph - N/A   Clear
1:31 AM 32.0 °F 24.8 °F 30.2 °F 93% 30.33 in 5.0 mi SSE 8.1 mph - N/A   Clear
1:51 AM 32.0 °F 25.6 °F 30.2 °F 93% 30.33 in 5.0 mi SSE 6.9 mph - N/A   Clear
2:11 AM 32.0 °F 24.8 °F 30.2 °F 93% 30.33 in 5.0 mi SSE 8.1 mph - N/A   Clear
2:31 AM 32.0 °F 25.6 °F 30.2 °F 93% 30.34 in 5.0 mi SSE 6.9 mph - N/A   Clear
2:51 AM 32.0 °F 24.8 °F 30.2 °F 93% 30.33 in 5.0 mi SSE 8.1 mph - N/A   Clear
3:11 AM 32.0 °F 24.2 °F 30.2 °F 93% 30.33 in 5.0 mi SSE 9.2 mph - N/A   Clear
3:51 AM 32.0 °F 24.8 °F 30.2 °F 93% 30.32 in 5.0 mi SSE 8.1 mph - N/A   Clear
4:11 AM 32.0 °F 24.2 °F 30.2 °F 93% 30.32 in 5.0 mi SSE 9.2 mph - N/A   Clear
4:31 AM 33.8 °F 25.3 °F 30.2 °F 87% 30.31 in 5.0 mi SSE 11.5 mph - N/A   Clear
4:51 AM 33.8 °F 25.8 °F 30.2 °F 87% 30.31 in 5.0 mi SSE 10.4 mph - N/A   Clear
5:11 AM 32.0 °F 23.0 °F 30.2 °F 93% 30.31 in 5.0 mi SSE 11.5 mph - N/A   Clear
5:31 AM 32.0 °F 24.2 °F 30.2 °F 93% 30.31 in 5.0 mi SSE 9.2 mph - N/A   Clear
5:51 AM 32.0 °F 23.6 °F 30.2 °F 93% 30.31 in 5.0 mi SSE 10.4 mph - N/A   Clear
6:11 AM 32.0 °F 23.6 °F 30.2 °F 93% 30.30 in 5.0 mi SSE 10.4 mph - N/A   Clear
6:31 AM 32.0 °F 23.0 °F 30.2 °F 93% 30.30 in 5.0 mi SSE 11.5 mph - N/A   Clear
6:51 AM 32.0 °F 23.6 °F 30.2 °F 93% 30.30 in 5.0 mi SSE 10.4 mph - N/A   Clear
7:11 AM 32.0 °F 23.6 °F 30.2 °F 93% 30.30 in 5.0 mi SSE 10.4 mph - N/A   Clear
7:31 AM 32.0 °F 24.2 °F 30.2 °F 93% 30.31 in 4.0 mi SSE 9.2 mph - N/A   Clear
7:51 AM 32.0 °F 23.6 °F 30.2 °F 93% 30.31 in 4.0 mi South 10.4 mph - N/A   Clear
8:11 AM 33.8 °F 26.4 °F 30.2 °F 87% 30.31 in 4.0 mi SSE 9.2 mph - N/A   Clear
8:31 AM 33.8 °F 25.8 °F 30.2 °F 87% 30.31 in 5.0 mi South 10.4 mph - N/A   Clear
8:51 AM 35.6 °F 27.5 °F 32.0 °F 87% 30.31 in 5.0 mi South 11.5 mph - N/A   Clear
9:11 AM 37.4 °F 30.8 °F 33.8 °F 87% 30.31 in 7.0 mi South 9.2 mph - N/A   Clear
9:31 AM 41.0 °F 34.7 °F 33.8 °F 76% 30.31 in 7.0 mi South 10.4 mph - N/A   Clear
9:51 AM 42.8 °F 37.0 °F 35.6 °F 76% 30.32 in 10.0 mi South 10.4 mph - N/A   Clear
10:11 AM 44.6 °F 39.2 °F 35.6 °F 71% 30.31 in 10.0 mi South 10.4 mph 16.1 mph N/A   Clear
10:31 AM 44.6 °F 38.8 °F 35.6 °F 71% 30.31 in 10.0 mi South 11.5 mph - N/A   Clear
10:51 AM 44.6 °F 38.8 °F 35.6 °F 71% 30.31 in 10.0 mi South 11.5 mph - N/A   Clear
11:11 AM 46.4 °F 40.7 °F 37.4 °F 71% 30.30 in 10.0 mi South 12.7 mph 17.3 mph N/A   Clear
11:31 AM 48.2 °F - 37.4 °F 66% 30.29 in 10.0 mi South 12.7 mph 18.4 mph N/A   Clear
11:51 AM 50.0 °F - 37.4 °F 62% 30.28 in 10.0 mi South 15.0 mph 19.6 mph N/A   Clear
12:11 PM 51.8 °F - 37.4 °F 58% 30.27 in 10.0 mi South 15.0 mph 20.7 mph N/A   Clear
12:31 PM 51.8 °F - 37.4 °F 58% 30.26 in 10.0 mi South 12.7 mph 19.6 mph N/A   Clear
12:51 PM 51.8 °F - 37.4 °F 58% 30.26 in 10.0 mi South 13.8 mph 19.6 mph N/A   Clear
1:11 PM 53.6 °F - 37.4 °F 54% 30.25 in 10.0 mi South 13.8 mph 17.3 mph N/A   Clear
1:31 PM 53.6 °F - 35.6 °F 51% 30.24 in 10.0 mi South 13.8 mph 23.0 mph N/A   Clear
1:51 PM 55.4 °F - 33.8 °F 44% 30.23 in 10.0 mi South 17.3 mph 21.9 mph N/A   Clear
2:11 PM 55.4 °F - 35.6 °F 47% 30.23 in 10.0 mi South 16.1 mph 21.9 mph N/A   Clear
2:31 PM 55.4 °F - 35.6 °F 47% 30.23 in 10.0 mi South 13.8 mph 23.0 mph N/A   Clear
2:51 PM 55.4 °F - 33.8 °F 44% 30.22 in 10.0 mi South 17.3 mph 25.3 mph N/A   Clear
3:11 PM 55.4 °F - 33.8 °F 44% 30.22 in 10.0 mi South 16.1 mph 20.7 mph N/A   Clear
3:31 PM 55.4 °F - 35.6 °F 47% 30.22 in 10.0 mi South 9.2 mph - N/A   Clear
3:51 PM 55.4 °F - 33.8 °F 44% 30.23 in 10.0 mi South 12.7 mph 21.9 mph N/A   Clear
4:11 PM 53.6 °F - 33.8 °F 47% 30.22 in 10.0 mi South 13.8 mph 21.9 mph N/A   Clear
4:31 PM 53.6 °F - 33.8 °F 47% 30.22 in 10.0 mi South 12.7 mph - N/A   Clear
4:51 PM 51.8 °F - 33.8 °F 50% 30.22 in 10.0 mi South 16.1 mph - N/A   Clear
5:11 PM 51.8 °F - 33.8 °F 50% 30.22 in 10.0 mi SSE 15.0 mph 25.3 mph N/A   Clear
5:31 PM 51.8 °F - 35.6 °F 54% 30.22 in 10.0 mi SSE 16.1 mph 21.9 mph N/A   Clear
5:51 PM 50.0 °F - 35.6 °F 58% 30.22 in 10.0 mi SSE 17.3 mph - N/A   Clear
6:11 PM 48.2 °F - 35.6 °F 62% 30.22 in 10.0 mi SSE 15.0 mph - N/A   Clear
6:31 PM 48.2 °F - 35.6 °F 62% 30.21 in 10.0 mi SSE 16.1 mph 23.0 mph N/A   Clear
6:51 PM 48.2 °F - 35.6 °F 62% 30.21 in 10.0 mi SSE 18.4 mph 24.2 mph N/A   Clear
7:11 PM 48.2 °F - 35.6 °F 62% 30.20 in 10.0 mi SSE 19.6 mph 29.9 mph N/A   Clear
7:31 PM 48.2 °F - 35.6 °F 62% 30.21 in 10.0 mi SSE 16.1 mph 23.0 mph N/A   Clear
7:51 PM 48.2 °F - 33.8 °F 58% 30.21 in 10.0 mi SSE 17.3 mph 24.2 mph N/A   Clear
8:11 PM 48.2 °F - 33.8 °F 58% 30.21 in 10.0 mi SSE 18.4 mph 26.5 mph N/A   Scattered Clouds
8:31 PM 48.2 °F - 33.8 °F 58% 30.22 in 10.0 mi SSE 18.4 mph 23.0 mph N/A   Overcast
8:51 PM 46.4 °F 39.5 °F 35.6 °F 66% 30.22 in 10.0 mi SSE 17.3 mph 25.3 mph N/A   Overcast
9:11 PM 46.4 °F 39.8 °F 33.8 °F 62% 30.23 in 10.0 mi South 16.1 mph 26.5 mph N/A   Overcast
9:31 PM 46.4 °F 40.7 °F 33.8 °F 62% 30.24 in 10.0 mi South 12.7 mph 20.7 mph N/A   Overcast
9:51 PM 46.4 °F 40.7 °F 33.8 °F 62% 30.24 in 10.0 mi South 12.7 mph - N/A   Overcast
10:11 PM 46.4 °F 40.7 °F 33.8 °F 62% 30.23 in 10.0 mi South 12.7 mph 18.4 mph N/A   Overcast
10:31 PM 46.4 °F 40.4 °F 33.8 °F 62% 30.23 in 10.0 mi SSE 13.8 mph 21.9 mph N/A   Overcast
10:51 PM 46.4 °F 40.4 °F 33.8 °F 62% 30.23 in 10.0 mi South 13.8 mph - N/A   Overcast
11:11 PM 46.4 °F 40.7 °F 33.8 °F 62% 30.23 in 10.0 mi South 12.7 mph 21.9 mph N/A   Overcast
11:31 PM 46.4 °F 40.7 °F 33.8 °F 62% 30.23 in 10.0 mi South 12.7 mph 18.4 mph N/A   Overcast
11:51 PM 46.4 °F 40.7 °F 33.8 °F 62% 30.23 in 10.0 mi South 12.7 mph 18.4 mph N/A   Overcast